TimeMDT,TemperatureF,Dew PointF,Humidity,Sea Level PressureIn,VisibilityMPH,Wind Direction,Wind SpeedMPH,Gust SpeedMPH,PrecipitationIn,Events,Conditions,WindDirDegrees,DateUTC
12:15 AM,52.2,49.3,90,30.28,10.0,SSW,4.6,-,N/A,,Clear,210,2013-09-16 06:15:00
12:35 AM,52.5,49.6,90,30.28,10.0,ESE,5.8,-,N/A,,Clear,120,2013-09-16 06:35:00
12:55 AM,52.7,50.4,92,30.28,10.0,SE,4.6,-,N/A,,Clear,140,2013-09-16 06:55:00
1:15 AM,50.9,49.3,94,30.28,10.0,SE,4.6,-,N/A,,Clear,140,2013-09-16 07:15:00
1:35 AM,51.3,49.6,94,30.28,10.0,SSE,4.6,-,N/A,,Clear,160,2013-09-16 07:35:00
1:55 AM,56.3,50.0,79,30.29,10.0,South,10.4,-,N/A,,Clear,170,2013-09-16 07:55:00
2:15 AM,55.8,49.3,79,30.29,10.0,South,8.1,-,N/A,,Clear,180,2013-09-16 08:15:00
2:35 AM,55.4,49.8,81,30.28,10.0,South,9.2,-,N/A,,Clear,170,2013-09-16 08:35:00
2:55 AM,54.5,50.0,85,30.28,10.0,South,8.1,-,N/A,,Clear,180,2013-09-16 08:55:00
3:15 AM,53.1,49.5,88,30.28,10.0,SSW,6.9,-,N/A,,Clear,200,2013-09-16 09:15:00
3:35 AM,52.7,49.3,88,30.28,10.0,South,6.9,-,N/A,,Clear,190,2013-09-16 09:35:00
3:55 AM,54.3,50.5,87,30.28,10.0,SSE,9.2,-,N/A,,Clear,160,2013-09-16 09:55:00
4:15 AM,55.2,50.9,85,30.28,10.0,SSE,9.2,-,N/A,,Clear,160,2013-09-16 10:15:00
4:35 AM,55.4,51.6,87,30.28,10.0,South,9.2,-,N/A,,Scattered Clouds,170,2013-09-16 10:35:00
4:55 AM,55.9,52.2,87,30.28,10.0,SSE,11.5,-,N/A,,Overcast,160,2013-09-16 10:55:00
5:15 AM,55.4,52.2,89,30.29,10.0,South,9.2,-,N/A,,Mostly Cloudy,170,2013-09-16 11:15:00
5:35 AM,55.4,52.5,90,30.29,10.0,South,6.9,-,N/A,,Scattered Clouds,170,2013-09-16 11:35:00
5:55 AM,55.2,52.5,91,30.29,10.0,South,9.2,-,N/A,,Clear,170,2013-09-16 11:55:00
6:15 AM,54.7,52.7,93,30.30,10.0,South,10.4,-,N/A,,Clear,170,2013-09-16 12:15:00
6:35 AM,54.5,52.5,93,30.31,10.0,South,9.2,-,N/A,,Clear,170,2013-09-16 12:35:00
6:55 AM,54.5,52.7,94,30.31,10.0,SSE,11.5,-,N/A,,Clear,160,2013-09-16 12:55:00
7:15 AM,54.1,52.5,94,30.32,10.0,South,12.7,-,N/A,,Clear,170,2013-09-16 13:15:00
7:35 AM,55.0,52.7,92,30.33,10.0,South,10.4,16.1,N/A,,Clear,170,2013-09-16 13:35:00
7:55 AM,55.9,53.1,90,30.34,10.0,SSE,15.0,-,N/A,,Clear,160,2013-09-16 13:55:00
8:15 AM,55.9,52.9,89,30.34,10.0,South,11.5,-,N/A,,Scattered Clouds,170,2013-09-16 14:15:00
8:35 AM,56.3,53.6,91,30.33,10.0,South,10.4,-,N/A,,Mostly Cloudy,180,2013-09-16 14:35:00
8:55 AM,57.6,54.1,88,30.33,10.0,South,11.5,-,N/A,,Overcast,180,2013-09-16 14:55:00
9:15 AM,60.3,54.3,81,30.34,10.0,SSE,11.5,-,N/A,,Scattered Clouds,160,2013-09-16 15:15:00
9:35 AM,61.9,54.1,76,30.34,10.0,SSE,15.0,-,N/A,,Clear,160,2013-09-16 15:35:00
9:55 AM,63.5,54.1,72,30.34,10.0,SSE,16.1,-,N/A,,Clear,150,2013-09-16 15:55:00
10:15 AM,63.9,54.1,71,30.34,10.0,SE,13.8,-,N/A,,Clear,140,2013-09-16 16:15:00
10:35 AM,64.6,54.7,70,30.34,10.0,SE,15.0,20.7,N/A,,Clear,140,2013-09-16 16:35:00
10:55 AM,65.5,54.7,68,30.34,10.0,SSE,10.4,18.4,N/A,,Clear,150,2013-09-16 16:55:00
11:15 AM,66.6,54.9,66,30.34,10.0,SE,11.5,18.4,N/A,,Clear,140,2013-09-16 17:15:00
11:35 AM,67.3,55.0,65,30.34,10.0,SE,12.7,19.6,N/A,,Clear,140,2013-09-16 17:35:00
11:55 AM,68.2,55.0,63,30.33,10.0,SSE,11.5,18.4,N/A,,Clear,150,2013-09-16 17:55:00
12:15 PM,68.5,55.0,62,30.32,10.0,SE,13.8,20.7,N/A,,Clear,130,2013-09-16 18:15:00
12:35 PM,69.4,54.9,60,30.32,10.0,ESE,15.0,21.9,N/A,Thunderstorm,Clear,120,2013-09-16 18:35:00
12:55 PM,70.2,55.4,59,30.31,10.0,SE,19.6,24.2,N/A,Thunderstorm,Clear,130,2013-09-16 18:55:00
1:15 PM,70.9,55.6,58,30.31,10.0,SE,18.4,24.2,N/A,Thunderstorm,Scattered Clouds,130,2013-09-16 19:15:00
1:35 PM,71.4,55.4,57,30.30,10.0,ESE,15.0,24.2,N/A,Thunderstorm,Thunderstorm,120,2013-09-16 19:35:00
1:55 PM,71.4,54.9,56,30.30,10.0,SE,16.1,25.3,N/A,Thunderstorm,Scattered Clouds,140,2013-09-16 19:55:00
2:15 PM,72.0,54.9,55,30.29,10.0,SE,16.1,23.0,N/A,Thunderstorm,Scattered Clouds,140,2013-09-16 20:15:00
2:35 PM,72.1,54.5,54,30.28,10.0,SE,11.5,25.3,N/A,,Scattered Clouds,130,2013-09-16 20:35:00
2:55 PM,71.6,54.5,55,30.28,10.0,SE,13.8,23.0,N/A,,Scattered Clouds,130,2013-09-16 20:55:00
3:15 PM,72.3,54.0,52,30.26,10.0,SE,13.8,19.6,N/A,Thunderstorm,Clear,140,2013-09-16 21:15:00
3:35 PM,73.2,53.2,49,30.26,10.0,SE,12.7,19.6,N/A,Thunderstorm,Scattered Clouds,140,2013-09-16 21:35:00
3:55 PM,72.7,53.2,50,30.25,10.0,SE,16.1,20.7,N/A,,Clear,140,2013-09-16 21:55:00
4:15 PM,72.7,53.1,50,30.24,10.0,SE,15.0,19.6,N/A,Thunderstorm,Clear,140,2013-09-16 22:15:00
4:35 PM,72.5,52.7,50,30.24,10.0,SE,13.8,19.6,N/A,,Clear,140,2013-09-16 22:35:00
4:55 PM,72.9,52.5,49,30.25,10.0,SE,11.5,19.6,N/A,,Clear,130,2013-09-16 22:55:00
5:15 PM,70.0,51.8,52,30.24,10.0,SE,11.5,17.3,N/A,,Scattered Clouds,140,2013-09-16 23:15:00
5:35 PM,68.9,51.6,54,30.24,10.0,SE,12.7,20.7,N/A,,Clear,130,2013-09-16 23:35:00
5:55 PM,68.4,51.8,55,30.24,10.0,SE,11.5,20.7,N/A,,Clear,130,2013-09-16 23:55:00
6:15 PM,68.4,51.8,55,30.24,10.0,SE,13.8,18.4,N/A,,Scattered Clouds,130,2013-09-17 00:15:00
6:35 PM,68.9,52.0,55,30.24,10.0,SE,12.7,-,N/A,,Clear,130,2013-09-17 00:35:00
6:55 PM,67.1,52.5,59,30.24,10.0,SE,11.5,-,N/A,,Scattered Clouds,130,2013-09-17 00:55:00
7:15 PM,66.6,52.7,61,30.25,10.0,SE,11.5,-,N/A,,Scattered Clouds,140,2013-09-17 01:15:00
7:35 PM,64.8,52.7,65,30.25,10.0,SSE,10.4,-,N/A,,Scattered Clouds,160,2013-09-17 01:35:00
7:55 PM,63.5,53.2,69,30.25,10.0,SSE,9.2,-,N/A,,Clear,160,2013-09-17 01:55:00
8:15 PM,61.5,53.8,76,30.26,10.0,SSE,5.8,-,N/A,,Clear,160,2013-09-17 02:15:00
8:35 PM,60.4,54.1,80,30.28,10.0,SSE,6.9,-,N/A,,Clear,160,2013-09-17 02:35:00
8:55 PM,59.2,54.1,83,30.28,10.0,South,3.5,-,N/A,,Clear,170,2013-09-17 02:55:00
9:15 PM,57.6,54.0,88,30.28,10.0,SSW,4.6,-,N/A,,Clear,200,2013-09-17 03:15:00
9:35 PM,56.3,53.4,90,30.28,10.0,SSE,4.6,-,N/A,,Clear,160,2013-09-17 03:35:00
9:55 PM,56.5,52.9,88,30.29,10.0,South,5.8,-,N/A,,Clear,190,2013-09-17 03:55:00
10:15 PM,57.0,53.1,87,30.29,10.0,South,6.9,-,N/A,,Clear,180,2013-09-17 04:15:00
10:35 PM,56.3,52.7,88,30.29,10.0,SSW,6.9,-,N/A,,Clear,200,2013-09-17 04:35:00
10:55 PM,55.6,52.3,89,30.29,10.0,South,5.8,-,N/A,,Clear,190,2013-09-17 04:55:00
11:15 PM,55.9,52.5,88,30.29,10.0,SSW,6.9,-,N/A,,Clear,200,2013-09-17 05:15:00
11:35 PM,55.9,52.3,88,30.29,10.0,South,6.9,-,N/A,,Clear,190,2013-09-17 05:35:00
11:55 PM,55.4,52.0,88,30.29,10.0,SSW,6.9,-,N/A,,Clear,200,2013-09-17 05:55:00